Weather Roundup
Issued by NWS Chicago, IL

Home | Current Version | Previous Version | Text Only | Print | Product List | Glossary On
Versions: 1 2 3 4 5 6 7 8 9 10 11 12 13 14 15 16 17 18 19 20 21 22 23 24 25 26 27 28 29 30 31 32 33 34 35 36 37 38 39 40 41 42 43 44 45 46 47 48 49 50
000
NZUS59 KLOT 202204
HRRLOT

CHICAGO AREA WEATHER ROUNDUP
NATIONAL WEATHER SERVICE CHICAGO/ROMEOVILLE IL
500 PM CDT THU JUL 20 2017

NOTE: "FAIR" INDICATES FEW OR NO CLOUDS BELOW 12,000 FEET WITH NO
SIGNIFICANT WEATHER AND/OR OBSTRUCTIONS TO VISIBILITY.

* THESE STATIONS ARE NOT UNDER NWS QUALITY CONTROL. THEY ALSO MAY NOT
  REPORT WEATHER SUCH AS PRECIPITATION OR FOG.

ILZ005-006-012>014-019>023-202300-
NORTHEAST ILLINOIS

CITY           SKY/WX    TMP DP  RH WIND       PRES   REMARKS
OHARE          CLOUDY    83  72  69 NE9       29.95S HX  88
MIDWAY         CLOUDY    83  71  67 E12       29.95S HX  87
AURORA         CLOUDY    85  77  77 W8        29.97S HX  95
LANSING*       PTSUNNY   82  70  68 NE8       29.96S HX  86
JOLIET*        CLOUDY    87  77  71 W6        29.96F HX  98
WAUKEGAN       MOSUNNY   76  70  82 E7        29.96S
DUPAGE AIRPORT PTSUNNY   86  77  74 W8        29.96F HX  97
WHEELING       CLOUDY    78  73  84 E6        29.98R HX  81
MORRIS*        PTSUNNY   86  78  75 NW5       29.95F HX  98
LEWIS AIRPORT* CLOUDY    85  74  70 W8        29.97S HX  93
NORTHERLY ISL    N/A     76  69  79 CALM        N/A
$$

WIZ051-052-058>065-066-070>072-202300-
SOUTHEAST WISCONSIN

CITY           SKY/WX    TMP DP  RH WIND       PRES   REMARKS
MILWAUKEE      PTSUNNY   77  70  79 SE9       29.95F
KENOSHA*       SUNNY     80  70  71 E7        29.97S HX  83
RACINE*        SUNNY     77  69  76 SE7       29.98F
WAUKESHA       MOSUNNY   82  70  65 NW7       29.97F HX  86
$$

INZ001>003-010>013-019-020-202300-
NORTHWEST INDIANA

CITY           SKY/WX    TMP DP  RH WIND       PRES   REMARKS
GARY*          NOT AVBL
MICHIGAN CITY* NOT AVBL
RENSSELAER*    NOT AVBL
VALPARAISO     CLOUDY    87  77  72 VRB7      29.97R HX  99
$$

LMZ740>746-202300-
SOUTHERN LAKE MICHIGAN

STATION/POSITION TIME  SKY/WX   TEMP WIND        PRES    VSBY
                                AIR  DIR/SP/G
                 (UTC)          (F)  (DEG/KT/KT) (MB)    (MI)
HARRISON CRIB    2140            75   80/  8/  9   N/A
BURNHAM HARBOR   2200            76                N/A
CALUMET HARBOR   2130            76   50/  4/  7 1014.3R
BURNS HARBOR     2140            75   70/  9/ 11 1015.2R
MICHIGAN CITY    2140            75   40/ 13/ 13   N/A
$$

ABBREVIATIONS USED IN REMARKS
   TC - TEMPERATURE IN CELSIUS
  WCI - WIND CHILL INDEX
   HX - HEAT INDEX
  VSB - VISIBILITY
$$




USA.gov is the U.S. government's official web portal to all federal, state and local government web resources and services.